This is the latest recevied weather packets stored in our database for station/object K5OBH. If no packets are shown the sender has not sent any weather packets the latest 10 day(s).
| Time | Temp. | Humidity | Pressure | Rain* | Wind** | Luminosity | Snow |
|---|---|---|---|---|---|---|---|
| 1777313578 | 30° C | 26% | 1006.5 hPa | 0 mm | - | 753 W/m² | - |
| 1777313276 | 30° C | 27% | 1006.2 hPa | 0 mm | - | 752 W/m² | - |
| 1777312972 | 30° C | 26% | 1006.5 hPa | 0 mm | - | 750 W/m² | - |
| 1777312669 | 30° C | 26% | 1006.4 hPa | 0 mm | - | 748 W/m² | - |
| 1777312366 | 29.44° C | 26% | 1006.4 hPa | 0 mm | - | 746 W/m² | - |
| 1777312063 | 30° C | 25% | 1006.4 hPa | 0 mm | - | 744 W/m² | - |
| 1777311759 | 29.44° C | 28% | 1006.4 hPa | 0 mm | - | 743 W/m² | - |
| 1777311457 | 29.44° C | 33% | 1006.5 hPa | 0 mm | - | 737 W/m² | - |
| 1777311154 | 29.44° C | 34% | 1006.4 hPa | 0 mm | - | 728 W/m² | - |
| 1777310852 | 28.89° C | 36% | 1006.2 hPa | 0 mm | - | 722 W/m² | - |
| 1777310549 | 29.44° C | 37% | 1006.3 hPa | 0 mm | - | 715 W/m² | - |
| 1777310246 | 29.44° C | 34% | 1006.3 hPa | 0 mm | - | 705 W/m² | - |
| 1777309944 | 29.44° C | 38% | 1006.2 hPa | 0 mm | - | 700 W/m² | - |
| 1777309642 | 28.89° C | 37% | 1006.2 hPa | 0 mm | - | 694 W/m² | - |
| 1777309338 | 28.89° C | 41% | 1006.2 hPa | 0 mm | - | 690 W/m² | - |
| 1777309037 | 28.33° C | 44% | 1006.4 hPa | 0 mm | - | 686 W/m² | - |
| 1777308734 | 27.78° C | 46% | 1006.4 hPa | 0 mm | - | 674 W/m² | - |
| 1777308434 | 27.78° C | 46% | 1006.5 hPa | 0 mm | - | 666 W/m² | - |
| 1777308130 | 27.78° C | 44% | 1006.2 hPa | 0 mm | - | 658 W/m² | - |
| 1777307826 | 27.78° C | 43% | 1006.2 hPa | 0 mm | - | 648 W/m² | - |
| 1777307524 | 27.78° C | 42% | 1006.2 hPa | 0 mm | - | 639 W/m² | - |
| 1777307220 | 27.22° C | 47% | 1006.4 hPa | 0 mm | - | 628 W/m² | - |
| 1777306918 | 27.22° C | 46% | 1006.2 hPa | 0 mm | - | 615 W/m² | - |
| 1777306615 | 27.78° C | 45% | 1006.2 hPa | 0 mm | - | 609 W/m² | - |
| 1777306310 | 27.78° C | 47% | 1005.8 hPa | 0 mm | - | 596 W/m² | - |
* Rain latest hour (hover to see other rain measurements)
** Current wind speed in m/s (hover to see current wind gust speed)